GPS BIIR-5 (PRN 22)

Last updated on Tue Aug 22 2023 00:03:07 GMT+0000 (Coordinated Universal Time)

1 26407U 00040A 23233.47399808 .00000051 00000+0 00000+0 0 9998 2 26407 55.2104 256.1524 0156061 291.2478 243.6339 2.00570588169264
UTC large
Height (km)
Speed (km/s)
/
Latitude / Longitude
Inclination (degrees)
Orbital Period (minutes)
Azimuth
Elevation
Range (km)
Doppler Factor

Next 0 passes for location: London (51.5072 / 0.1276)

Sorry there are no passes over London.